[[[{"header":{"parameterUnit":"kt","parameterCategory":2,"dx":1,"dy":1,"la1":30.253999710083008,"la2":30.299108505249023,"lo1":-89.0895004272461,"lo2":-89.04439544677734,"nx":28,"ny":28,"refTime":"2022-10-15T21:00:00:Z","depth":0,"parameterNumber":1,"parameterNumberName":"U-component_of_WINDS"},"data":[0.1235,0.1239,0.1265,0.1283,0.131,0.1327,0.1342,0.1365,0.1391,0.1416,0.1436,0.1465,0.1503,0.1536,0.156,0.1573,0.1582,0.1564,0.1583,0.1636,0.1645,0.1654,0.1654,0.1566,0.1566,0.1524,0.1523,0.1523,0.1275,0.1302,0.1318,0.1352,0.1367,0.1401,0.1432,0.1443,0.1458,0.1489,0.151,0.1535,0.1559,0.1604,0.1633,0.1638,0.1656,0.1644,0.1644,0.1649,0.1707,0.1707,0.1629,0.1629,0.1629,0.1629,0.1629,0.1629,0.1355,0.1356,0.1392,0.141,0.1435,0.1458,0.1464,0.1499,0.1516,0.1547,0.1577,0.1595,0.1633,0.168,0.1704,0.172,0.1739,0.1735,0.1734,0.1732,0.1726,0.1785,0.1727,0.1727,0.1727,0.1728,0.1728,0,0.1422,0.1444,0.1461,0.1487,0.1502,0.1524,0.1549,0.1554,0.1612,0.1624,0.1644,0.1661,0.1695,0.1719,0.1751,0.1777,0.1814,0.182,0.1818,0.1803,0.1786,0.1796,0.1889,0.1821,0.1822,0.1823,0.1824,0.1824,0.1505,0.1502,0.1552,0.1561,0.1581,0.1594,0.1608,0.1658,0.1671,0.1711,0.171,0.1734,0.1755,0.1785,0.1827,0.1852,0.1871,0.1842,0.1875,0.1862,0.1871,0.187,0.1871,0.1834,0.1832,0.1831,0.1831,0,0.155,0.1593,0.1597,0.1647,0.166,0.1655,0.1698,0.1702,0.1735,0.1745,0.175,0.1802,0.1822,0.1868,0.19,0.1924,0.1921,0.1938,0.1909,0.1915,0.1895,0.1896,0.1818,0.1811,0.1903,0.1902,0.1901,0,0.1637,0.1632,0.1696,0.1696,0.1693,0.1743,0.1738,0.1766,0.1797,0.1805,0.1854,0.1861,0.1919,0.1933,0.1968,0.1974,0.198,0.1998,0.2008,0.1994,0.1991,0.2001,0.2005,0.2028,0.2028,0.2029,0.2029,0,0.1702,0.1729,0.173,0.1743,0.1795,0.1795,0.1817,0.1852,0.1865,0.1889,0.1899,0.1924,0.1937,0.1957,0.2001,0.2022,0.2009,0.2046,0.2028,0.2027,0.2022,0.2021,0.1942,0.2029,0.2029,0.2029,0.203,0,0.1779,0.18,0.1794,0.1839,0.1844,0.1845,0.1872,0.1883,0.1916,0.1938,0.1957,0.1995,0.2002,0.2036,0.2048,0.2063,0.2074,0.2093,0.2092,0.2095,0.2131,0.208,0.2,0.1993,0.2099,0.21,0.2101,0,0.1842,0.1846,0.1888,0.1882,0.189,0.1943,0.1945,0.1972,0.2001,0.2014,0.2046,0.206,0.2095,0.2106,0.2106,0.214,0.2121,0.2144,0.2163,0.2164,0.2153,0.2079,0.2055,0.2012,0.2109,0.2108,0.2107,0,0.1895,0.1957,0.1952,0.197,0.2012,0.2019,0.2021,0.2045,0.2051,0.2076,0.208,0.21,0.2128,0.2144,0.2176,0.2174,0.2135,0.2203,0.2205,0.219,0.2116,0.2094,0.2086,0.2158,0.2157,0.2157,0.2114,0,0.2003,0.201,0.2,0.2034,0.2047,0.2044,0.209,0.2098,0.2128,0.2157,0.2163,0.2196,0.2221,0.2224,0.2252,0.2231,0.2242,0.227,0.2306,0.2257,0.2244,0.2239,0.2322,0.2323,0.2324,0.2325,0,0,0.2053,0.2063,0.2108,0.211,0.2124,0.2177,0.2171,0.219,0.2227,0.2235,0.2256,0.2288,0.2313,0.2315,0.2304,0.2313,0.2314,0.2328,0.228,0.2275,0.227,0.2255,0.2249,0.2327,0.2327,0.2328,0.2328,0,0.2101,0.2124,0.2116,0.2138,0.2172,0.2203,0.2201,0.2243,0.2262,0.2266,0.2311,0.232,0.2342,0.2364,0.2379,0.233,0.2363,0.2334,0.2292,0.2289,0.2283,0.2277,0.2261,0.2254,0.2331,0.2331,0.2331,0,0.2163,0.2193,0.2194,0.2224,0.2247,0.2253,0.2302,0.2307,0.2313,0.2371,0.2374,0.2398,0.2431,0.2426,0.2425,0.2444,0.2405,0.2424,0.2419,0.2419,0.2419,0.2411,0.2403,0.2499,0.25,0.25,0,0,0.2198,0.2204,0.2252,0.2238,0.2249,0.2295,0.2302,0.2332,0.2359,0.237,0.2401,0.2427,0.2442,0.245,0.2465,0.2453,0.2464,0.2443,0.2435,0.2429,0.2426,0.2423,0.2415,0.2502,0.2502,0.2502,0,0,0.2215,0.227,0.2294,0.2284,0.2308,0.2354,0.2344,0.2376,0.2394,0.2399,0.245,0.2459,0.2455,0.2476,0.2491,0.2479,0.2513,0.2511,0.2464,0.2455,0.2447,0.2442,0.2545,0,0,0,0,0,0.2287,0.2263,0.2285,0.229,0.2328,0.2342,0.2347,0.2388,0.2412,0.2404,0.2436,0.247,0.2495,0.251,0.2514,0.2497,0.2521,0.2517,0.2514,0.2452,0.2441,0.2433,0,0,0,0,0,0,0.229,0.2295,0.2286,0.233,0.2339,0.2343,0.2393,0.2404,0.2414,0.2421,0.2463,0.2471,0.2507,0.251,0.2514,0.2496,0.2544,0.2519,0.2517,0.2514,0.2448,0.244,0.2432,0,0,0,0,0,0.2292,0.2296,0.2347,0.2331,0.2339,0.2387,0.2394,0.2404,0.2413,0.2461,0.247,0.2442,0.2505,0.2511,0.2512,0.2494,0.2542,0.2543,0.2518,0.2515,0.2513,0.2444,0,0,0,0,0,0,0.2293,0.2305,0.2349,0.2353,0.2342,0.2388,0.2396,0.2403,0.2453,0.2462,0.2443,0.2447,0.2504,0.2508,0.2513,0.249,0.2541,0.2542,0.2543,0.2516,0.2514,0.2512,0,0,0,0,0,0,0.2303,0.2308,0.2351,0.2363,0.2369,0.2388,0.2396,0.2403,0.2452,0.2432,0.2438,0.2444,0.2498,0.2506,0.251,0.2519,0.2539,0.254,0.2541,0.2542,0.2514,0.2513,0,0,0,0,0,0,0.2306,0.2311,0.2363,0.2367,0.2372,0.242,0.2395,0.2432,0.2462,0.2429,0.2466,0.2468,0.2495,0.2499,0.2508,0.2515,0.2518,0.2539,0.254,0.2541,0.2541,0,0,0,0,0,0,0,0.2309,0.2269,0.2325,0.237,0.2375,0.239,0.2391,0.2392,0.2463,0.2464,0.2466,0.2467,0.2533,0.2534,0.2535,0.2512,0,0,0.2539,0.254,0,0,0,0,0,0,0,0,0.2268,0.2268,0.2325,0.2326,0.2327,0.239,0.2391,0.2392,0.2463,0.2464,0.2465,0.2467,0.2533,0.2534,0.2535,0,0,0,0,0,0,0,0,0,0,0,0,0,0,0,0.2326,0.2326,0,0.239,0.2391,0.2392,0.2463,0.2464,0.2465,0.2466,0.2534,0.2534,0.2535,0,0,0,0,0,0,0,0,0,0,0,0,0,0,0,0,0,0,0,0,0,0,0,0,0,0,0,0,0,0,0,0,0,0,0,0,0,0,0,0,0,0,0,0,0,0,0,0,0,0,0,0,0,0,0,0,0,0,0,0,0,0,0,0,0,0,0,0,0]}],[{"header":{"parameterUnit":"kt","parameterCategory":2,"dx":1,"dy":1,"la1":30.253999710083008,"la2":30.299108505249023,"lo1":-89.0895004272461,"lo2":-89.04439544677734,"nx":28,"ny":28,"refTime":"2022-10-15T21:00:00:Z","depth":0,"parameterNumber":2,"parameterNumberName":"V-component_of_WINDS"},"data":[-1.7977,-1.7924,-1.7888,-1.7809,-1.7763,-1.7702,-1.7668,-1.762,-1.7572,-1.7493,-1.744,-1.7396,-1.733,-1.7256,-1.7195,-1.7176,-1.7152,-1.716,-1.7136,-1.7136,-1.7133,-1.7131,-1.7142,-1.7156,-1.7156,-1.7141,-1.7141,-1.7141,-1.7982,-1.7937,-1.7885,-1.781,-1.7765,-1.7736,-1.7672,-1.7635,-1.758,-1.752,-1.7466,-1.7392,-1.7327,-1.7257,-1.7188,-1.7159,-1.7139,-1.7142,-1.7143,-1.7133,-1.7132,-1.7145,-1.7159,-1.7159,-1.7159,-1.7159,-1.7159,-1.7159,-1.7981,-1.795,-1.7884,-1.7826,-1.7778,-1.7728,-1.769,-1.7638,-1.7584,-1.751,-1.7474,-1.741,-1.7341,-1.7237,-1.7192,-1.7139,-1.7128,-1.7118,-1.7116,-1.7114,-1.7118,-1.7145,-1.7125,-1.7125,-1.7125,-1.7125,-1.7124,0,-1.7969,-1.7941,-1.7888,-1.7825,-1.778,-1.7727,-1.7671,-1.7646,-1.7571,-1.7529,-1.7465,-1.7422,-1.7334,-1.7268,-1.7193,-1.7147,-1.7109,-1.71,-1.7093,-1.711,-1.7135,-1.712,-1.712,-1.7101,-1.71,-1.71,-1.71,-1.71,-1.7965,-1.7933,-1.7845,-1.7812,-1.7773,-1.7721,-1.7682,-1.7618,-1.7578,-1.7498,-1.7472,-1.7405,-1.7348,-1.7249,-1.7183,-1.7116,-1.7096,-1.7093,-1.7086,-1.7104,-1.7095,-1.7097,-1.7093,-1.7096,-1.7096,-1.7097,-1.7097,0,-1.7966,-1.7906,-1.7843,-1.7758,-1.7736,-1.7705,-1.763,-1.7595,-1.7546,-1.749,-1.7473,-1.7395,-1.7332,-1.7266,-1.7179,-1.7146,-1.709,-1.7072,-1.7114,-1.7106,-1.7097,-1.7098,-1.7076,-1.707,-1.7056,-1.7056,-1.7056,0,-1.7938,-1.7897,-1.781,-1.7777,-1.7729,-1.7666,-1.762,-1.7573,-1.7513,-1.7468,-1.7416,-1.7374,-1.7296,-1.7245,-1.7196,-1.7138,-1.7122,-1.7092,-1.708,-1.7097,-1.71,-1.7072,-1.7072,-1.7053,-1.7053,-1.7053,-1.7054,0,-1.7945,-1.785,-1.7796,-1.7765,-1.7668,-1.7644,-1.7602,-1.7534,-1.7495,-1.7434,-1.7408,-1.734,-1.7303,-1.7251,-1.7189,-1.7187,-1.7117,-1.71,-1.7087,-1.7089,-1.7074,-1.7075,-1.7074,-1.7054,-1.7054,-1.7054,-1.7054,0,-1.7912,-1.7855,-1.7786,-1.7704,-1.7682,-1.7645,-1.7576,-1.753,-1.7461,-1.7429,-1.738,-1.7336,-1.7281,-1.7269,-1.7191,-1.7205,-1.7171,-1.7138,-1.7135,-1.7125,-1.7114,-1.7121,-1.7127,-1.7125,-1.7118,-1.7118,-1.7119,0,-1.7937,-1.7851,-1.7796,-1.7731,-1.7682,-1.7627,-1.7585,-1.7526,-1.7479,-1.7429,-1.7376,-1.7319,-1.7296,-1.7269,-1.7239,-1.7181,-1.7163,-1.7182,-1.7106,-1.7104,-1.7127,-1.7132,-1.7149,-1.7134,-1.7124,-1.7124,-1.7123,0,-1.7948,-1.7832,-1.7824,-1.7785,-1.7698,-1.7656,-1.7608,-1.7538,-1.7508,-1.7447,-1.7403,-1.7321,-1.73,-1.7255,-1.7211,-1.7184,-1.7173,-1.7164,-1.7161,-1.7168,-1.7122,-1.7139,-1.7136,-1.715,-1.7149,-1.7148,-1.7128,0,-1.7912,-1.786,-1.7837,-1.7753,-1.771,-1.7665,-1.7597,-1.7561,-1.7525,-1.7476,-1.7411,-1.7343,-1.7269,-1.7249,-1.7212,-1.717,-1.7166,-1.7144,-1.7126,-1.7131,-1.7122,-1.7119,-1.7145,-1.7144,-1.7143,-1.7143,0,0,-1.7949,-1.7875,-1.7815,-1.7767,-1.7727,-1.767,-1.7628,-1.7582,-1.749,-1.7463,-1.7454,-1.7327,-1.7272,-1.7199,-1.7195,-1.7165,-1.715,-1.7151,-1.713,-1.7129,-1.7127,-1.712,-1.7117,-1.7141,-1.7141,-1.7141,-1.7141,0,-1.7922,-1.7871,-1.7832,-1.7782,-1.7707,-1.7657,-1.7648,-1.7562,-1.7529,-1.7465,-1.7416,-1.7368,-1.7269,-1.7216,-1.7176,-1.7159,-1.7123,-1.7142,-1.7156,-1.7124,-1.7124,-1.7124,-1.7117,-1.7115,-1.7139,-1.7139,-1.7139,0,-1.792,-1.7858,-1.7832,-1.774,-1.769,-1.764,-1.7606,-1.7554,-1.7516,-1.7452,-1.739,-1.7342,-1.7265,-1.7206,-1.7177,-1.7167,-1.7103,-1.711,-1.7113,-1.7108,-1.7073,-1.7073,-1.7074,-1.7073,-1.7073,-1.7073,0,0,-1.7905,-1.7858,-1.777,-1.7729,-1.7701,-1.7627,-1.7593,-1.7553,-1.7487,-1.7461,-1.7399,-1.7335,-1.7276,-1.7239,-1.7179,-1.7124,-1.7102,-1.7105,-1.7108,-1.7111,-1.7107,-1.7074,-1.7074,-1.7074,-1.7074,-1.7074,0,0,-1.7897,-1.7795,-1.777,-1.7715,-1.7656,-1.7565,-1.7541,-1.7508,-1.7448,-1.7445,-1.7372,-1.7352,-1.7295,-1.725,-1.7262,-1.7171,-1.7156,-1.7151,-1.7203,-1.7206,-1.7209,-1.7221,-1.7215,0,0,0,0,0,-1.7834,-1.7808,-1.7787,-1.7767,-1.7649,-1.7577,-1.7561,-1.7502,-1.7493,-1.7476,-1.7418,-1.7383,-1.7241,-1.7251,-1.7231,-1.7217,-1.7077,-1.7076,-1.7076,-1.713,-1.7134,-1.7137,0,0,0,0,0,0,-1.7826,-1.7802,-1.7787,-1.7697,-1.767,-1.7577,-1.7548,-1.7532,-1.7493,-1.7488,-1.7395,-1.738,-1.7326,-1.7256,-1.724,-1.7228,-1.722,-1.7077,-1.7076,-1.7076,-1.7131,-1.7134,-1.7137,0,0,0,0,0,-1.7819,-1.78,-1.7627,-1.7696,-1.7673,-1.7588,-1.7549,-1.7535,-1.7503,-1.7414,-1.7398,-1.7462,-1.7328,-1.7309,-1.7246,-1.7237,-1.7232,-1.7226,-1.7077,-1.7076,-1.7076,-1.7133,0,0,0,0,0,0,-1.7814,-1.7785,-1.762,-1.7611,-1.7702,-1.7592,-1.7573,-1.7538,-1.7431,-1.7415,-1.7478,-1.7475,-1.7328,-1.7314,-1.73,-1.7244,-1.7241,-1.7235,-1.7231,-1.7076,-1.7076,-1.7076,0,0,0,0,0,0,-1.7795,-1.7778,-1.7615,-1.7626,-1.7617,-1.7596,-1.7579,-1.7516,-1.7431,-1.7501,-1.7495,-1.7478,-1.7348,-1.7317,-1.7306,-1.721,-1.7248,-1.7242,-1.7238,-1.7235,-1.7076,-1.7076,0,0,0,0,0,0,-1.7787,-1.7772,-1.7628,-1.7621,-1.7613,-1.7502,-1.7539,-1.742,-1.7443,-1.7506,-1.7443,-1.7443,-1.7352,-1.734,-1.731,-1.7219,-1.7212,-1.7248,-1.7244,-1.7241,-1.7239,0,0,0,0,0,0,0,-1.778,-1.7895,-1.7677,-1.7617,-1.761,-1.7523,-1.7521,-1.7518,-1.7443,-1.7443,-1.7443,-1.7443,-1.7281,-1.7275,-1.7268,-1.7227,0,0,-1.7248,-1.7245,0,0,0,0,0,0,0,0,-1.79,-1.7896,-1.7677,-1.7675,-1.7673,-1.7523,-1.7521,-1.7518,-1.7443,-1.7443,-1.7443,-1.7443,-1.728,-1.7274,-1.7269,0,0,0,0,0,0,0,0,0,0,0,0,0,0,0,-1.7677,-1.7675,0,-1.7522,-1.7521,-1.7519,-1.7443,-1.7443,-1.7443,-1.7443,-1.7278,-1.7274,-1.7269,0,0,0,0,0,0,0,0,0,0,0,0,0,0,0,0,0,0,0,0,0,0,0,0,0,0,0,0,0,0,0,0,0,0,0,0,0,0,0,0,0,0,0,0,0,0,0,0,0,0,0,0,0,0,0,0,0,0,0,0,0,0,0,0,0,0,0,0,0]}]]]